Weather History for Marathon, FL

Change the Weather History Date:

Friday, March 15, 2013

  Actual Average Record
Temperature  
Mean Temperature 67 °F 74 °F  
Max Temperature 74 °F 79 °F 88 °F (2008)
Min Temperature 60 °F 68 °F 60 °F (2013)
Degree Days  
Heating Degree Days 0 0  
Month to date heating degree days 19 0  
Since 1 July heating degree days 32 75  
Cooling Degree Days 2 9  
Month to date cooling degree days 51 125  
Year to date cooling degree days 646 507  
Growing Degree Days 17 (Base 50)    
Moisture  
Dew Point 47 °F    
Average Humidity 50    
Maximum Humidity 64    
Minimum Humidity 35    
Precipitation  
Precipitation 0.00 in 0.08 in 0.25 in (2012)
Month to date precipitation 0.15 1.14  
Year to date precipitation 2.53 4.96  
Snow  
Snow 0.00 in - - ()
Month to date snowfall 0.0  
Since 1 July snowfall 0.0  
Snow Depth 0.00 in    
Sea Level Pressure  
Sea Level Pressure 30.19 in    
Wind  
Wind Speed 11 mph (NE)    
Max Wind Speed 18 mph    
Max Gust Speed 24 mph    
Visibility 10 miles    
Events      
T = Trace of Precipitation, MM = Missing Value Source: NWS Daily Summary

Daily Weather History Graph

Daily Weather History Graph

Search for Another Location

Airport:

Trip Planner

Search our weather history database for the weather conditions in past years. The results will help you decide how hot, cold, wet, or windy it might be!

Date:

Astronomy

Mar. 15, 2013 Rise Set
Actual Time 7:33 AM EDT 7:33 PM EDT
Civil Twilight 7:10 AM EDT 7:56 PM EDT
Nautical Twilight 6:43 AM EDT 8:22 PM EDT
Astronomical Twilight 6:17 AM EDT 8:49 PM EDT
Moon 9:49 AM EDT (3/15) 11:15 PM EDT (3/15)
Length of Visible Light 12h 45m
Length of Day
12h 00m
Waxing Crescent, 15% of the Moon is Illuminated
Mar 15
Waxing Crescent
Mar 19
First Quarter
Mar 27
Full
Apr 3
Last Quarter
Apr 10
New

Hourly Weather History & Observations

Time (EDT) Temp. Dew Point Humidity Pressure Visibility Wind Dir Wind Speed Gust Speed Precip Events Conditions
12:53 AM 64.9 °F 46.9 °F 52% 30.18 in 10.0 mi NE 11.5 mph - N/A   Clear
1:53 AM 64.0 °F 44.1 °F 48% 30.18 in 10.0 mi NE 10.4 mph - N/A   Clear
2:53 AM 62.1 °F 46.0 °F 56% 30.17 in 10.0 mi NNE 10.4 mph - N/A   Clear
3:53 AM 61.0 °F 48.0 °F 62% 30.16 in 10.0 mi NNE 12.7 mph - N/A   Clear
4:53 AM 61.0 °F 48.9 °F 64% 30.16 in 10.0 mi NNE 12.7 mph - N/A   Clear
5:53 AM 61.0 °F 45.0 °F 56% 30.18 in 10.0 mi NNE 13.8 mph 19.6 mph N/A   Clear
6:53 AM 61.0 °F 42.1 °F 50% 30.20 in 10.0 mi NNE 11.5 mph - N/A   Clear
7:53 AM 62.1 °F 42.1 °F 48% 30.22 in 10.0 mi NNE 9.2 mph 18.4 mph N/A   Clear
8:53 AM 61.0 °F 43.0 °F 52% 30.23 in 10.0 mi NNE 15.0 mph 23.0 mph N/A   Clear
9:53 AM 63.0 °F 43.0 °F 48% 30.25 in 10.0 mi NE 15.0 mph 21.9 mph N/A   Clear
10:53 AM 64.0 °F 43.0 °F 46% 30.25 in 10.0 mi NNE 13.8 mph 21.9 mph N/A   Clear
11:53 AM 66.9 °F 39.9 °F 37% 30.25 in 10.0 mi NNE 12.7 mph - N/A   Clear
12:53 PM 69.1 °F 41.0 °F 36% 30.23 in 10.0 mi NNE 10.4 mph - N/A   Clear
1:53 PM 71.1 °F 42.1 °F 35% 30.21 in 10.0 mi NNE 9.2 mph - N/A   Clear
2:08 PM 71.6 °F 42.8 °F 35% 30.21 in 10.0 mi NNE 10.4 mph - N/A   Scattered Clouds
2:53 PM 71.1 °F 42.1 °F 35% 30.19 in 10.0 mi NNE 10.4 mph - N/A   Clear
3:53 PM 73.0 °F 45.0 °F 37% 30.17 in 10.0 mi NE 11.5 mph - N/A   Clear
4:53 PM 73.0 °F 50.0 °F 44% 30.15 in 10.0 mi NE 10.4 mph - N/A   Clear
5:53 PM 73.0 °F 48.9 °F 42% 30.15 in 10.0 mi ENE 11.5 mph - N/A   Clear
6:53 PM 70.0 °F 53.1 °F 55% 30.15 in 10.0 mi East 9.2 mph 18.4 mph N/A   Clear
7:53 PM 69.1 °F 54.0 °F 58% 30.15 in 10.0 mi ENE 9.2 mph - N/A   Clear
8:53 PM 68.0 °F 55.0 °F 63% 30.15 in 10.0 mi ENE 9.2 mph - N/A   Clear
9:53 PM 68.0 °F 54.0 °F 61% 30.17 in 10.0 mi ENE 8.1 mph - N/A   Clear
10:53 PM 66.9 °F 52.0 °F 59% 30.18 in 10.0 mi ENE 6.9 mph - N/A   Clear
11:53 PM 66.0 °F 52.0 °F 60% 30.18 in 10.0 mi ENE 4.6 mph - N/A   Clear